Date String (YYYY-MM-DD hh:mm:ss) UTC,Instrument flags,Ambient pressure (hPa),Sample flow (lpm),Bypass flow (lpm),Sample temperature (°C),Ambient temperature (°C),ASC tube jacket temperature (°C),LED temperature (°C),Box temperature (°C),Sample RH (%),Span deviation,Mass concentration (μg/m³),Mass concentration (μg/m³),Mass concentration (μg/m³)
DateTimeUTC,F1_M11,P_M11,Q1_M11,Q2_M11,T1_M11,T2_M11,T3_M11,T4_M11,T5_M11,U1_M11,ZSPAN_M11,X0_M11,X2_M11,X1_M11
2022-06-14 04:00:00,,0814.1,5.00,0.00,29.2,28.1,00.0,38.0,31.2,16.3,0000.0,0037.96,0009.77,0005.42
2022-06-14 04:01:00,,0814.2,5.01,0.00,29.2,28.3,00.0,38.0,31.2,16.3,0000.0,0035.71,0009.41,0005.09
2022-06-14 04:02:00,,0814.2,4.99,0.00,29.3,28.4,00.0,38.0,31.3,16.4,0000.0,0035.08,0009.16,0004.86
2022-06-14 04:03:00,,0814.1,5.00,0.00,29.3,28.5,00.0,38.1,31.4,16.4,0000.0,0034.18,0009.01,0004.69
2022-06-14 04:04:00,,0814.1,5.01,0.00,29.4,28.4,00.0,38.1,31.3,16.4,0000.0,0032.55,0008.80,0004.56
2022-06-14 04:05:00,,0814.0,4.99,0.00,29.3,27.7,00.0,38.0,31.1,16.4,0000.0,0031.86,0008.56,0004.43
2022-06-14 04:06:00,,0813.8,5.01,0.00,29.3,27.3,00.0,38.0,31.0,16.5,0000.0,0030.07,0008.28,0004.27
2022-06-14 04:07:00,,0813.5,5.00,0.00,29.2,27.3,00.0,38.0,31.0,16.5,0000.0,0027.49,0008.11,0004.12
2022-06-14 04:08:00,,0813.5,5.00,0.00,29.2,27.4,00.0,38.0,31.0,16.6,0000.0,0026.18,0007.86,0003.99
2022-06-14 04:09:00,,0813.6,4.99,0.00,29.2,27.5,00.0,38.0,31.1,16.6,0000.0,0026.14,0007.73,0003.85
2022-06-14 04:10:00,,0813.9,5.01,0.00,29.2,27.7,00.0,38.0,31.1,16.6,0000.0,0026.54,0007.60,0003.73
2022-06-14 04:11:00,,0814.2,5.00,0.00,29.2,27.8,00.0,38.0,31.1,16.5,0000.0,0026.33,0007.46,0003.64
2022-06-14 04:12:00,,0814.3,4.99,0.00,29.2,28.0,00.0,38.0,31.2,16.5,0000.0,0025.02,0007.27,0003.57
2022-06-14 04:13:00,,0814.0,5.00,0.00,29.3,28.1,00.0,38.1,31.2,16.4,0000.0,0024.77,0007.10,0003.50
2022-06-14 04:14:00,,0813.9,5.02,0.00,29.3,28.2,00.0,38.1,31.3,16.4,0000.0,0024.38,0006.91,0003.42
2022-06-14 04:15:00,,0814.1,4.99,0.00,29.3,28.4,00.0,38.1,31.3,16.4,0000.0,0024.22,0006.79,0003.35
2022-06-14 04:16:00,,0814.2,4.99,0.00,29.4,28.5,00.0,38.1,31.4,16.3,0000.0,0024.14,0006.72,0003.31
2022-06-14 04:17:00,,0814.1,5.00,0.00,29.4,28.5,00.0,38.1,31.4,16.3,0000.0,0024.51,0006.70,0003.27
2022-06-14 04:18:00,,0813.9,5.01,0.00,29.4,27.9,00.0,38.1,31.2,16.4,0000.0,0023.60,0006.48,0003.23
2022-06-14 04:19:00,,0814.0,5.00,0.00,29.3,26.9,00.0,38.0,30.9,16.4,0000.0,0022.89,0006.38,0003.20
2022-06-14 04:20:00,,0814.2,4.99,0.00,29.2,26.6,00.0,38.0,30.8,16.5,0000.0,0021.76,0006.24,0003.17
2022-06-14 04:21:00,,0814.1,5.01,0.00,29.1,26.6,00.0,38.0,30.8,16.5,0000.0,0021.47,0006.22,0003.15
2022-06-14 04:22:00,,0814.1,4.99,0.00,29.0,26.7,00.0,38.0,30.8,16.6,0000.0,0021.76,0006.19,0003.12
2022-06-14 04:23:00,,0814.3,5.01,0.00,29.0,26.9,00.0,37.9,30.8,16.6,0000.0,0022.57,0006.28,0003.11
2022-06-14 04:24:00,,0814.4,5.00,0.00,29.0,27.1,00.0,37.9,30.9,16.6,0000.0,0022.13,0006.31,0003.08
2022-06-14 04:25:00,,0814.4,5.00,0.00,29.0,27.3,00.0,37.9,30.9,16.6,0000.0,0021.83,0006.31,0003.09
2022-06-14 04:26:00,,0814.4,5.00,0.00,29.0,27.5,00.0,37.9,30.9,16.5,0000.0,0022.94,0006.32,0003.11
2022-06-14 04:27:00,,0814.5,5.01,0.00,29.1,27.7,00.0,37.9,31.0,16.5,0000.0,0023.56,0006.28,0003.09
2022-06-14 04:28:00,,0814.4,5.01,0.00,29.1,27.9,00.0,37.9,31.0,16.4,0000.0,0023.40,0006.20,0003.06
2022-06-14 04:29:00,,0814.4,5.00,0.00,29.1,28.0,00.0,37.9,31.1,16.4,0000.0,0024.04,0006.26,0003.04
2022-06-14 04:30:00,,0814.3,5.00,0.00,29.2,28.2,00.0,38.0,31.2,16.4,0000.0,0024.08,0006.27,0003.02
2022-06-14 04:31:00,,0814.4,5.00,0.00,29.2,28.3,00.0,38.0,31.2,16.3,0000.0,0024.23,0006.39,0003.02
2022-06-14 04:32:00,,0814.4,4.99,0.00,29.2,28.4,00.0,38.0,31.3,16.3,0000.0,0022.97,0006.37,0003.04
2022-06-14 04:33:00,,0814.6,5.00,0.00,29.3,28.5,00.0,38.0,31.3,16.2,0000.0,0022.97,0006.43,0003.08
2022-06-14 04:34:00,,0814.4,5.00,0.00,29.3,28.6,00.0,38.1,31.4,16.2,0000.0,0022.35,0006.32,0003.08
2022-06-14 04:35:00,,0814.7,5.00,0.00,29.4,28.5,00.0,38.1,31.3,16.1,0000.0,0022.33,0006.29,0003.11
2022-06-14 04:36:00,,0814.6,5.01,0.00,29.3,27.4,00.0,38.0,31.1,16.1,0000.0,0022.52,0006.23,0003.11
2022-06-14 04:37:00,,0814.6,4.99,0.00,29.2,26.7,00.0,38.0,30.8,16.2,0000.0,0021.69,0006.24,0003.11
2022-06-14 04:38:00,,0814.9,5.00,0.00,29.1,26.6,00.0,37.9,30.8,16.3,0000.0,0021.94,0006.38,0003.12
2022-06-14 04:39:00,,0814.9,5.01,0.00,29.0,26.6,00.0,37.9,30.8,16.4,0000.0,0021.52,0006.44,0003.14
2022-06-14 04:40:00,,0814.9,4.99,0.00,29.0,26.8,00.0,37.9,30.8,16.4,0000.0,0021.34,0006.46,0003.16
2022-06-14 04:41:00,,0815.0,5.01,0.00,29.0,27.0,00.0,37.9,30.8,16.4,0000.0,0021.40,0006.47,0003.18
2022-06-14 04:42:00,,0815.1,5.00,0.00,29.0,27.2,00.0,37.9,30.9,16.4,0000.0,0021.52,0006.40,0003.21
2022-06-14 04:43:00,,0815.0,5.00,0.00,29.0,27.4,00.0,37.9,30.9,16.3,0000.0,0022.26,0006.39,0003.21
2022-06-14 04:44:00,,0814.9,5.01,0.00,29.0,27.6,00.0,37.9,31.0,16.2,0000.0,0020.76,0006.30,0003.20
2022-06-14 04:45:00,,0814.9,5.00,0.00,29.1,27.8,00.0,37.9,31.0,16.2,0000.0,0020.84,0006.45,0003.20
2022-06-14 04:46:00,,0814.9,5.00,0.00,29.1,27.9,00.0,37.9,31.1,16.1,0000.0,0020.93,0006.43,0003.18
2022-06-14 04:47:00,,0814.9,5.01,0.00,29.1,28.1,00.0,37.9,31.1,16.0,0000.0,0021.21,0006.53,0003.19
2022-06-14 04:48:00,,0814.9,4.99,0.00,29.2,28.2,00.0,37.9,31.2,16.0,0000.0,0020.66,0006.57,0003.20
2022-06-14 04:49:00,,0814.9,4.99,0.00,29.2,28.3,00.0,38.0,31.2,15.9,0000.0,0021.40,0006.45,0003.19
2022-06-14 04:50:00,,0815.2,4.99,0.00,29.2,28.4,00.0,38.0,31.3,15.9,0000.0,0021.28,0006.43,0003.19
2022-06-14 04:51:00,,0815.2,5.01,0.00,29.3,28.5,00.0,38.0,31.3,15.8,0000.0,0023.32,0006.50,0003.17
2022-06-14 04:52:00,,0815.3,5.01,0.00,29.3,28.6,00.0,38.1,31.4,15.8,0000.0,0023.93,0006.63,0003.16
2022-06-14 04:53:00,,0815.3,5.00,0.00,29.4,28.6,00.0,38.1,31.4,15.8,0000.0,0023.73,0006.72,0003.15
2022-06-14 04:54:00,,0815.1,5.00,0.00,29.4,28.2,00.0,38.1,31.3,15.8,0000.0,0024.10,0006.69,0003.14
2022-06-14 04:55:00,,0815.0,5.01,0.00,29.3,27.4,00.0,38.0,31.1,15.7,0000.0,0024.60,0006.69,0003.14
2022-06-14 04:56:00,,0815.0,5.01,0.00,29.3,27.2,00.0,38.0,31.0,15.8,0000.0,0024.84,0006.58,0003.14
2022-06-14 04:57:00,,0815.1,4.99,0.00,29.2,27.2,00.0,38.0,31.0,15.9,0000.0,0025.45,0006.61,0003.16
2022-06-14 04:58:00,,0815.3,5.00,0.00,29.2,27.3,00.0,38.0,31.0,15.9,0000.0,0025.08,0006.62,0003.16
2022-06-14 04:59:00,,0815.3,5.00,0.00,29.2,27.5,00.0,38.0,31.0,15.9,0000.0,0024.96,0006.55,0003.17
